Regional Weather Roundup
Issued by NWS Sioux Falls, SD

Home | Current Version | Previous Version | Text Only | Print | Product List | Glossary On
Versions: 1 2 3 4 5 6 7 8 9 10 11 12 13 14 15 16 17 18 19 20 21 22 23 24 25 26 27 28 29 30 31 32 33 34 35 36 37 38 39 40 41 42 43 44 45 46 47 48 49 50
000
ASUS43 KFSD 021702
RWRFSD

WEATHER ROUNDUP FOR SE SOUTH DAKOTA/SW MINNESOTA/NW IOWA
NATIONAL WEATHER SERVICE SIOUX FALLS SD
1200 PM CDT WED SEP 02 2015

NOTE: "FAIR" INDICATES FEW OR NO CLOUDS BELOW 12,000 FEET WITH NO
SIGNIFICANT WEATHER AND OR OBSTRUCTIONS TO VISIBILITY.


SDZ038>040-050-052>070-021800-
SOUTHEAST SOUTH DAKOTA

CITY           SKY/WX    TMP DP  RH WIND       PRES   REMARKS
BROOKINGS      SUNNY     79  72  78 SE13      29.86S
CHAMBERLAIN    MOSUNNY   81  69  65 SE5       29.79S
HURON          SUNNY     82  70  66 S10G17    29.78F
MADISON        FAIR      77  77 100 S10       29.85S
MITCHELL       SUNNY     83  71  67 SE9       29.80F
SIOUX FALLS    MOSUNNY   81  72  74 S10       29.85F
WINNER         FAIR      88  57  34 S7        29.81F
YANKTON        SUNNY     82  72  69 SE12      29.81F
$$

MNZ071-072-080-081-089-090-097-098-021800-
SOUTHWEST MINNESOTA

CITY           SKY/WX    TMP DP  RH WIND       PRES   REMARKS
FAIRMONT       SUNNY     81  66  61 S16G23    29.88F
JACKSON        SUNNY     81  70  69 S16       29.90F
LUVERNE        SUNNY     81  70  69 S9        29.87F
MARSHALL       SUNNY     82  70  65 SW9       29.86S
MONTEVIDEO     SUNNY     84  72  65 SE7       29.86S
PIPESTONE      SUNNY     79  70  73 S12       29.87S
REDWOOD FALLS  SUNNY     81  71  71 S8        29.86S
TRACY          SUNNY     82  73  75 S9        29.86S
WINDOM         SUNNY     81  70  69 S9G16     29.88S
WORTHINGTON    SUNNY     79  70  73 S15       29.88F
$$

IAZ001>003-012>014-020>022-031-032-NEZ013-014-SDZ071-021800-
NORTHWEST IOWA

CITY           SKY/WX    TMP DP  RH WIND       PRES   REMARKS
ESTHERVILLE    SUNNY     79  70  74 S17G24    29.89F
SIOUX CITY     SUNNY     83  69  62 S14       29.87F
SPENCER        SUNNY     82  69  64 S16G23    29.89F
$$

ABBREVIATIONS USED IN REMARKS
   TC - TEMPERATURE IN CELSIUS
  WCI - WIND CHILL INDEX
   HX - HEAT INDEX
  VSB - VISIBILITY




USA.gov is the U.S. government's official web portal to all federal, state and local government web resources and services.